| time (UTC) | temp F | wind direction | speed MPH | gust MPH | rain 1hr in | rain 24hr in | rain mn in | humidity % | barometer mb |
| 20260505001551 | 74 | 111 | 8.0 | 18.0 | 0.00 | 0.00 | 0.00 | 34 | 1008.3 |
| 20260505000105 | 74 | 123 | 12.0 | 21.0 | 0.00 | 0.00 | 0.00 | 33 | 1008.2 |
| 20260504234545 | 75 | 109 | 9.0 | 17.0 | 0.00 | 0.00 | 0.00 | 35 | 1008.2 |
| 20260504233016 | 75 | 105 | 8.0 | 19.0 | 0.00 | 0.00 | 0.00 | 33 | 1008.2 |
| 20260504231515 | 75 | 153 | 10.0 | 25.0 | 0.00 | 0.00 | 0.00 | 34 | 1008.4 |
| 20260504230010 | 75 | 110 | 8.0 | 24.0 | 0.00 | 0.00 | 0.00 | 32 | 1008.4 |
| 20260504224510 | 75 | 116 | 13.0 | 21.0 | 0.00 | 0.00 | 0.00 | 32 | 1008.5 |
| 20260504223008 | 75 | 132 | 11.0 | 20.0 | 0.00 | 0.00 | 0.00 | 35 | 1008.6 |
| 20260504221509 | 75 | 138 | 11.0 | 21.0 | 0.00 | 0.00 | 0.00 | 33 | 1008.8 |
| 20260504220008 | 75 | 101 | 9.0 | 19.0 | 0.00 | 0.00 | 0.00 | 33 | 1008.7 |
| 20260504214535 | 76 | 117 | 11.0 | 19.0 | 0.00 | 0.00 | 0.00 | 32 | 1008.8 |
| 20260504213041 | 76 | 144 | 10.0 | 18.0 | 0.00 | 0.00 | 0.00 | 31 | 1008.9 |
| 20260504211528 | 76 | 128 | 9.0 | 21.0 | 0.00 | 0.00 | 0.00 | 31 | 1009.0 |
| 20260504210028 | 76 | 134 | 12.0 | 20.0 | 0.00 | 0.00 | 0.00 | 28 | 1009.1 |
| 20260504204525 | 76 | 114 | 11.0 | 20.0 | 0.00 | 0.00 | 0.00 | 29 | 1009.1 |
| 20260504203027 | 76 | 131 | 11.0 | 19.0 | 0.00 | 0.00 | 0.00 | 35 | 1009.2 |
| 20260504201518 | 76 | 101 | 10.0 | 25.0 | 0.00 | 0.00 | 0.00 | 33 | 1009.3 |
| 20260504200016 | 74 | 144 | 6.0 | 12.0 | 0.00 | 0.00 | 0.00 | 40 | 1009.4 |
| 20260504194512 | 73 | 146 | 3.0 | 7.0 | 0.00 | 0.00 | 0.00 | 42 | 1009.6 |
| 20260504193009 | 72 | 162 | 4.0 | 11.0 | 0.00 | 0.00 | 0.00 | 43 | 1009.8 |
| 20260504191504 | 72 | 78 | 2.0 | 5.0 | 0.00 | 0.00 | 0.00 | 40 | 1010.0 |
| 20260504190002 | 71 | 77 | 1.0 | 5.0 | 0.00 | 0.00 | 0.00 | 39 | 1010.1 |
| 20260504184608 | 71 | 173 | 0.0 | 2.0 | 0.00 | 0.00 | 0.00 | 44 | 1010.1 |
| 20260504183106 | 69 | 200 | 2.0 | 4.0 | 0.00 | 0.00 | 0.00 | 43 | 1010.3 |
| 20260504181557 | 68 | 219 | 1.0 | 3.0 | 0.00 | 0.00 | 0.00 | 43 | 1010.5 |
| 20260504180050 | 68 | 153 | 1.0 | 2.0 | 0.00 | 0.00 | 0.00 | 51 | 1010.6 |
| 20260504174547 | 66 | 34 | 0.0 | 4.0 | 0.00 | 0.00 | 0.00 | 48 | 1010.7 |
| 20260504173045 | 65 | 145 | 0.0 | 3.0 | 0.00 | 0.00 | 0.00 | 50 | 1010.7 |
| 20260504171539 | 64 | 107 | 1.0 | 4.0 | 0.00 | 0.00 | 0.00 | 54 | 1010.9 |
| 20260504081526 | 49 | 143 | 0.0 | 3.0 | 0.00 | 0.00 | 0.00 | 71 | 1011.0 |
| 20260504044528 | 56 | 337 | 1.0 | 4.0 | 0.00 | 0.00 | 0.00 | 63 | 1011.2 |
| 20260504043023 | 56 | 19 | 2.0 | 5.0 | 0.00 | 0.00 | 0.00 | 64 | 1011.1 |
| 20260504041522 | 57 | 326 | 1.0 | 5.0 | 0.00 | 0.00 | 0.00 | 64 | 1011.0 |
| 20260504040021 | 58 | 295 | 1.0 | 3.0 | 0.00 | 0.00 | 0.00 | 62 | 1011.0 |
| 20260504034522 | 59 | 321 | 2.0 | 5.0 | 0.00 | 0.00 | 0.00 | 61 | 1011.0 |
| 20260504033053 | 61 | 305 | 1.0 | 4.0 | 0.00 | 0.00 | 0.00 | 57 | 1010.9 |
| 20260504031552 | 65 | 255 | 0.0 | 3.0 | 0.00 | 0.00 | 0.00 | 50 | 1010.9 |
| 20260504030047 | 67 | 124 | 1.0 | 9.0 | 0.00 | 0.00 | 0.00 | 45 | 1010.8 |
| 20260504024601 | 69 | 135 | 3.0 | 12.0 | 0.00 | 0.00 | 0.00 | 43 | 1010.7 |
| 20260504023048 | 70 | 147 | 5.0 | 13.0 | 0.00 | 0.00 | 0.00 | 41 | 1010.6 |
| 20260504021546 | 71 | 118 | 5.0 | 13.0 | 0.00 | 0.00 | 0.00 | 39 | 1010.6 |
| 20260504020044 | 71 | 129 | 6.0 | 16.0 | 0.00 | 0.00 | 0.00 | 38 | 1010.6 |
| 20260504014541 | 72 | 106 | 7.0 | 15.0 | 0.00 | 0.00 | 0.00 | 37 | 1010.6 |
| 20260504013041 | 73 | 135 | 6.0 | 17.0 | 0.00 | 0.00 | 0.00 | 35 | 1010.7 |
| 20260504011540 | 74 | 122 | 7.0 | 17.0 | 0.00 | 0.00 | 0.00 | 32 | 1010.8 |
| 20260504010036 | 75 | 140 | 9.0 | 20.0 | 0.00 | 0.00 | 0.00 | 31 | 1010.9 |
| 20260504004543 | 75 | 132 | 8.0 | 17.0 | 0.00 | 0.00 | 0.00 | 30 | 1010.9 |
| 20260504003040 | 76 | 145 | 9.0 | 19.0 | 0.00 | 0.00 | 0.00 | 30 | 1010.9 |